Year,Month,Day,Hour,Minute,Value (Times are PST for temperature in C)
2012,07,07,00,00,14.40
2012,07,07,00,01,14.40
2012,07,07,00,02,14.40
2012,07,07,00,03,14.40
2012,07,07,00,04,14.40
2012,07,07,00,05,14.40
2012,07,07,00,06,14.40
2012,07,07,00,07,14.40
2012,07,07,00,08,14.40
2012,07,07,00,09,14.30
2012,07,07,00,10,14.30
2012,07,07,00,11,14.30
2012,07,07,00,12,14.30
2012,07,07,00,13,14.30
2012,07,07,00,14,14.30
2012,07,07,00,15,14.30
2012,07,07,00,16,14.30
2012,07,07,00,17,14.30
2012,07,07,00,18,14.20
2012,07,07,00,19,14.20
2012,07,07,00,20,14.20
2012,07,07,00,21,14.10
2012,07,07,00,22,14.10
2012,07,07,00,23,14.10
2012,07,07,00,24,14.10
2012,07,07,00,25,14.10
2012,07,07,00,26,14.10
2012,07,07,00,27,14.10
2012,07,07,00,28,14.10
2012,07,07,00,29,14.10
2012,07,07,00,30,14.00
2012,07,07,00,31,14.00
2012,07,07,00,32,14.00
2012,07,07,00,33,14.00
2012,07,07,00,34,14.00
2012,07,07,00,35,14.00
2012,07,07,00,36,14.00
2012,07,07,00,37,14.00
2012,07,07,00,38,14.00
2012,07,07,00,39,14.00
2012,07,07,00,40,14.00
2012,07,07,00,41,14.00
2012,07,07,00,42,14.00
2012,07,07,00,43,13.90
2012,07,07,00,44,13.90
2012,07,07,00,45,13.90
2012,07,07,00,46,13.90
2012,07,07,00,47,13.90
2012,07,07,00,48,13.90
2012,07,07,00,49,13.80
2012,07,07,00,50,13.80
2012,07,07,00,51,13.80
2012,07,07,00,52,13.80
2012,07,07,00,53,13.80
2012,07,07,00,54,13.80
2012,07,07,00,55,13.80
2012,07,07,00,56,13.80
2012,07,07,00,57,13.80
2012,07,07,00,58,13.80
2012,07,07,00,59,13.80
2012,07,07,01,00,13.80
2012,07,07,01,01,13.80
2012,07,07,01,02,13.80
2012,07,07,01,03,13.70
2012,07,07,01,04,13.70
2012,07,07,01,05,13.70
2012,07,07,01,06,13.70
2012,07,07,01,07,13.70
2012,07,07,01,08,13.70
2012,07,07,01,09,13.70
2012,07,07,01,10,13.70
2012,07,07,01,11,13.70
2012,07,07,01,12,13.60
2012,07,07,01,13,13.60
2012,07,07,01,14,13.60
2012,07,07,01,15,13.60
2012,07,07,01,16,13.60
2012,07,07,01,17,13.50
2012,07,07,01,18,13.50
2012,07,07,01,19,13.40
2012,07,07,01,20,13.40
2012,07,07,01,21,13.40
2012,07,07,01,22,13.40
2012,07,07,01,23,13.30
2012,07,07,01,24,13.30
2012,07,07,01,25,13.30
2012,07,07,01,26,13.30
2012,07,07,01,27,13.30
2012,07,07,01,28,13.20
2012,07,07,01,29,13.20
2012,07,07,01,30,13.20
2012,07,07,01,31,13.20
2012,07,07,01,32,13.20
2012,07,07,01,33,13.20
2012,07,07,01,34,13.20
2012,07,07,01,35,13.20
2012,07,07,01,36,13.20
2012,07,07,01,37,13.20
2012,07,07,01,38,13.10
2012,07,07,01,39,13.10
2012,07,07,01,40,13.10
2012,07,07,01,41,13.10
2012,07,07,01,42,13.10
2012,07,07,01,43,13.10
2012,07,07,01,44,13.10
2012,07,07,01,45,13.00
2012,07,07,01,46,13.00
2012,07,07,01,47,13.00
2012,07,07,01,48,13.00
2012,07,07,01,49,13.00
2012,07,07,01,50,13.00
2012,07,07,01,51,13.00
2012,07,07,01,52,12.90
2012,07,07,01,53,12.90
2012,07,07,01,54,12.90
2012,07,07,01,55,12.90
2012,07,07,01,56,12.90
2012,07,07,01,57,12.90
2012,07,07,01,58,12.90
2012,07,07,01,59,12.90
2012,07,07,02,00,12.80
2012,07,07,02,01,12.80
2012,07,07,02,02,12.80
2012,07,07,02,03,12.80
2012,07,07,02,04,12.70
2012,07,07,02,05,12.70
2012,07,07,02,06,12.70
2012,07,07,02,07,12.60
2012,07,07,02,08,12.60
2012,07,07,02,09,12.50
2012,07,07,02,10,12.50
2012,07,07,02,11,12.40
2012,07,07,02,12,12.40
2012,07,07,02,13,12.40
2012,07,07,02,14,12.40
2012,07,07,02,15,12.40
2012,07,07,02,16,12.30
2012,07,07,02,17,12.30
2012,07,07,02,18,12.30
2012,07,07,02,19,12.20
2012,07,07,02,20,12.20
2012,07,07,02,21,12.20
2012,07,07,02,22,12.10
2012,07,07,02,23,12.10
2012,07,07,02,24,12.10
2012,07,07,02,25,12.10
2012,07,07,02,26,12.10
2012,07,07,02,27,12.00
2012,07,07,02,28,12.00
2012,07,07,02,29,11.90
2012,07,07,02,30,11.90
2012,07,07,02,31,11.90
2012,07,07,02,32,11.90
2012,07,07,02,33,11.90
2012,07,07,02,34,11.80
2012,07,07,02,35,11.80
2012,07,07,02,36,11.80
2012,07,07,02,37,11.80
2012,07,07,02,38,11.80
2012,07,07,02,39,11.70
2012,07,07,02,40,11.70
2012,07,07,02,41,11.70
2012,07,07,02,42,11.70
2012,07,07,02,43,11.70
2012,07,07,02,44,11.60
2012,07,07,02,45,11.60
2012,07,07,02,46,11.60
2012,07,07,02,47,11.60
2012,07,07,02,48,11.60
2012,07,07,02,49,11.50
2012,07,07,02,50,11.50
2012,07,07,02,51,11.40
2012,07,07,02,52,11.40
2012,07,07,02,53,11.40
2012,07,07,02,54,11.40
2012,07,07,02,55,11.30
2012,07,07,02,56,11.30
2012,07,07,02,57,11.30
2012,07,07,02,58,11.30
2012,07,07,02,59,11.30
2012,07,07,03,00,11.30
2012,07,07,03,01,11.30
2012,07,07,03,02,11.30
2012,07,07,03,03,11.20
2012,07,07,03,04,11.20
2012,07,07,03,05,11.20
2012,07,07,03,06,11.20
2012,07,07,03,07,11.20
2012,07,07,03,08,11.20
2012,07,07,03,09,11.20
2012,07,07,03,10,11.20
2012,07,07,03,11,11.20
2012,07,07,03,12,11.20
2012,07,07,03,13,11.20
2012,07,07,03,14,11.20
2012,07,07,03,15,11.20
2012,07,07,03,16,11.20
2012,07,07,03,17,11.20
2012,07,07,03,18,11.20
2012,07,07,03,19,11.20
2012,07,07,03,20,11.20
2012,07,07,03,21,11.20
2012,07,07,03,22,11.20
2012,07,07,03,23,11.20
2012,07,07,03,24,11.20
2012,07,07,03,25,11.20
2012,07,07,03,26,11.20
2012,07,07,03,27,11.20
2012,07,07,03,28,11.10
2012,07,07,03,29,11.10
2012,07,07,03,30,11.10
2012,07,07,03,31,11.10
2012,07,07,03,32,11.00
2012,07,07,03,33,11.00
2012,07,07,03,34,11.00
2012,07,07,03,35,10.90
2012,07,07,03,36,10.90
2012,07,07,03,37,10.80
2012,07,07,03,38,10.80
2012,07,07,03,39,10.80
2012,07,07,03,40,10.80
2012,07,07,03,41,10.80
2012,07,07,03,42,10.70
2012,07,07,03,43,10.70
2012,07,07,03,44,10.70
2012,07,07,03,45,10.60
2012,07,07,03,46,10.60
2012,07,07,03,47,10.60
2012,07,07,03,48,10.60
2012,07,07,03,49,10.50
2012,07,07,03,50,10.50
2012,07,07,03,51,10.40
2012,07,07,03,52,10.40
2012,07,07,03,53,10.40
2012,07,07,03,54,10.40
2012,07,07,03,55,10.40
2012,07,07,03,56,10.40
2012,07,07,03,57,10.40
2012,07,07,03,58,10.40
2012,07,07,03,59,10.40
2012,07,07,04,00,10.40
2012,07,07,04,01,10.40
2012,07,07,04,02,10.40
2012,07,07,04,03,10.40
2012,07,07,04,04,10.40
2012,07,07,04,05,10.40
2012,07,07,04,06,10.40
2012,07,07,04,07,10.40
2012,07,07,04,08,10.40
2012,07,07,04,09,10.30
2012,07,07,04,10,10.30
2012,07,07,04,11,10.30
2012,07,07,04,12,10.30
2012,07,07,04,13,10.30
2012,07,07,04,14,10.30
2012,07,07,04,15,10.30
2012,07,07,04,16,10.20
2012,07,07,04,17,10.20
2012,07,07,04,18,10.20
2012,07,07,04,19,10.20
2012,07,07,04,20,10.20
2012,07,07,04,21,10.20
2012,07,07,04,22,10.20
2012,07,07,04,23,10.10
2012,07,07,04,24,10.10
2012,07,07,04,25,10.10
2012,07,07,04,26,10.10
2012,07,07,04,27,10.10
2012,07,07,04,28,10.10
2012,07,07,04,29,10.10
2012,07,07,04,30,10.10
2012,07,07,04,31,10.10
2012,07,07,04,32,10.10
2012,07,07,04,33,10.10
2012,07,07,04,34,10.10
2012,07,07,04,35,10.10
2012,07,07,04,36,10.10
2012,07,07,04,37,10.00
2012,07,07,04,38,10.00
2012,07,07,04,39,10.00
2012,07,07,04,40,10.00
2012,07,07,04,41,9.90
2012,07,07,04,42,9.90
2012,07,07,04,43,9.90
2012,07,07,04,44,9.90
2012,07,07,04,45,9.90
2012,07,07,04,46,9.90
2012,07,07,04,47,9.80
2012,07,07,04,48,9.80
2012,07,07,04,49,9.80
2012,07,07,04,50,9.80
2012,07,07,04,51,9.80
2012,07,07,04,52,9.80
2012,07,07,04,53,9.80
2012,07,07,04,54,9.80
2012,07,07,04,55,9.80
2012,07,07,04,56,9.80
2012,07,07,04,57,9.80
2012,07,07,04,58,9.80
2012,07,07,04,59,9.70
2012,07,07,05,00,9.70
2012,07,07,05,01,9.70
2012,07,07,05,02,9.70
2012,07,07,05,03,9.70
2012,07,07,05,04,9.70
2012,07,07,05,05,9.60
2012,07,07,05,06,9.60
2012,07,07,05,07,9.60
2012,07,07,05,08,9.60
2012,07,07,05,09,9.60
2012,07,07,05,10,9.50
2012,07,07,05,11,9.50
2012,07,07,05,12,9.50
2012,07,07,05,13,9.40
2012,07,07,05,14,9.40
2012,07,07,05,15,9.40
2012,07,07,05,16,9.40
2012,07,07,05,17,9.40
2012,07,07,05,18,9.40
2012,07,07,05,19,9.40
2012,07,07,05,20,9.40
2012,07,07,05,21,9.40
2012,07,07,05,22,9.40
2012,07,07,05,23,9.50
2012,07,07,05,24,9.50
2012,07,07,05,25,9.50
2012,07,07,05,26,9.50
2012,07,07,05,27,9.50
2012,07,07,05,28,9.50
2012,07,07,05,29,9.50
2012,07,07,05,30,9.50
2012,07,07,05,31,9.50
2012,07,07,05,32,9.50
2012,07,07,05,33,9.50
2012,07,07,05,34,9.50
2012,07,07,05,35,9.50
2012,07,07,05,36,9.50
2012,07,07,05,37,9.50
2012,07,07,05,38,9.50
2012,07,07,05,39,9.50
2012,07,07,05,40,9.50
2012,07,07,05,41,9.50
2012,07,07,05,42,9.50
2012,07,07,05,43,9.50
2012,07,07,05,44,9.60
2012,07,07,05,45,9.60
2012,07,07,05,46,9.60
2012,07,07,05,47,9.60
2012,07,07,05,48,9.60
2012,07,07,05,49,9.60
2012,07,07,05,50,9.60
2012,07,07,05,51,9.50
2012,07,07,05,52,9.50
2012,07,07,05,53,9.50
2012,07,07,05,54,9.50
2012,07,07,05,55,9.50
2012,07,07,05,56,9.50
2012,07,07,05,57,9.50
2012,07,07,05,58,9.50
2012,07,07,05,59,9.50
2012,07,07,06,00,9.60
2012,07,07,06,01,9.60
2012,07,07,06,02,9.60
2012,07,07,06,03,9.60
2012,07,07,06,04,9.60
2012,07,07,06,05,9.60
2012,07,07,06,06,9.60
2012,07,07,06,07,9.60
2012,07,07,06,08,9.60
2012,07,07,06,09,9.60
2012,07,07,06,10,9.60
2012,07,07,06,11,9.70
2012,07,07,06,12,9.70
2012,07,07,06,13,9.70
2012,07,07,06,14,9.70
2012,07,07,06,15,9.70
2012,07,07,06,16,9.60
2012,07,07,06,17,9.60
2012,07,07,06,18,9.60
2012,07,07,06,19,9.60
2012,07,07,06,20,9.60
2012,07,07,06,21,9.60
2012,07,07,06,22,9.60
2012,07,07,06,23,9.60
2012,07,07,06,24,9.60
2012,07,07,06,25,9.60
2012,07,07,06,26,9.60
2012,07,07,06,27,9.60
2012,07,07,06,28,9.60
2012,07,07,06,29,9.60
2012,07,07,06,30,9.60
2012,07,07,06,31,9.60
2012,07,07,06,32,9.60
2012,07,07,06,33,9.60
2012,07,07,06,34,9.60
2012,07,07,06,35,9.60
2012,07,07,06,36,9.60
2012,07,07,06,37,9.70
2012,07,07,06,38,9.70
2012,07,07,06,39,9.70
2012,07,07,06,40,9.80
2012,07,07,06,41,9.80
2012,07,07,06,42,9.80
2012,07,07,06,43,9.90
2012,07,07,06,44,9.90
2012,07,07,06,45,9.90
2012,07,07,06,46,10.00
2012,07,07,06,47,10.00
2012,07,07,06,48,10.00
2012,07,07,06,49,10.10
2012,07,07,06,50,10.10
2012,07,07,06,51,10.20
2012,07,07,06,52,10.20
2012,07,07,06,53,10.20
2012,07,07,06,54,10.30
2012,07,07,06,55,10.30
2012,07,07,06,56,10.30
2012,07,07,06,57,10.40
2012,07,07,06,58,10.40
2012,07,07,06,59,10.40
2012,07,07,07,00,10.50
2012,07,07,07,01,10.50
2012,07,07,07,02,10.50
2012,07,07,07,03,10.60
2012,07,07,07,04,10.70
2012,07,07,07,05,10.70
2012,07,07,07,06,10.80
2012,07,07,07,07,10.80
2012,07,07,07,08,10.90
2012,07,07,07,09,11.00
2012,07,07,07,10,11.10
2012,07,07,07,11,11.10
2012,07,07,07,12,11.10
2012,07,07,07,13,11.20
2012,07,07,07,14,11.20
2012,07,07,07,15,11.20
2012,07,07,07,16,11.30
2012,07,07,07,17,11.30
2012,07,07,07,18,11.30
2012,07,07,07,19,11.40
2012,07,07,07,20,11.40
2012,07,07,07,21,11.50
2012,07,07,07,22,11.50
2012,07,07,07,23,11.60
2012,07,07,07,24,11.60
2012,07,07,07,25,11.70
2012,07,07,07,26,11.70
2012,07,07,07,27,11.80
2012,07,07,07,28,11.80
2012,07,07,07,29,11.80
2012,07,07,07,30,11.90
2012,07,07,07,31,11.90
2012,07,07,07,32,12.00
2012,07,07,07,33,12.00
2012,07,07,07,34,12.10
2012,07,07,07,35,12.10
2012,07,07,07,36,12.20
2012,07,07,07,37,12.20
2012,07,07,07,38,12.30
2012,07,07,07,39,12.30
2012,07,07,07,40,12.40
2012,07,07,07,41,12.50
2012,07,07,07,42,12.60
2012,07,07,07,43,12.60
2012,07,07,07,44,12.70
2012,07,07,07,45,12.80
2012,07,07,07,46,12.90
2012,07,07,07,47,12.90
2012,07,07,07,48,13.00
2012,07,07,07,49,13.10
2012,07,07,07,50,13.20
2012,07,07,07,51,13.20
2012,07,07,07,52,13.30
2012,07,07,07,53,13.40
2012,07,07,07,54,13.50
2012,07,07,07,55,13.60
2012,07,07,07,56,13.70
2012,07,07,07,57,13.80
2012,07,07,07,58,13.90
2012,07,07,07,59,14.00
2012,07,07,08,00,14.10
2012,07,07,08,01,14.20
2012,07,07,08,02,14.30
2012,07,07,08,03,14.40
2012,07,07,08,04,14.50
2012,07,07,08,05,14.60
2012,07,07,08,06,14.70
2012,07,07,08,07,14.70
2012,07,07,08,08,14.80
2012,07,07,08,09,14.90
2012,07,07,08,10,15.00
2012,07,07,08,11,15.00
2012,07,07,08,12,15.00
2012,07,07,08,13,15.00
2012,07,07,08,14,15.00
2012,07,07,08,15,15.00
2012,07,07,08,16,15.10
2012,07,07,08,17,15.20
2012,07,07,08,18,15.30
2012,07,07,08,19,15.50
2012,07,07,08,20,15.60
2012,07,07,08,21,15.60
2012,07,07,08,22,15.70
2012,07,07,08,23,15.70
2012,07,07,08,24,15.80
2012,07,07,08,25,15.90
2012,07,07,08,26,15.90
2012,07,07,08,27,16.00
2012,07,07,08,28,16.10
2012,07,07,08,29,16.10
2012,07,07,08,30,16.20
2012,07,07,08,31,16.20
2012,07,07,08,32,16.30
2012,07,07,08,33,16.30
2012,07,07,08,34,16.30
2012,07,07,08,35,16.40
2012,07,07,08,36,16.50
2012,07,07,08,37,16.60
2012,07,07,08,38,16.60
2012,07,07,08,39,16.70
2012,07,07,08,40,16.80
2012,07,07,08,41,16.90
2012,07,07,08,42,16.90
2012,07,07,08,43,17.00
2012,07,07,08,44,17.10
2012,07,07,08,45,17.10
2012,07,07,08,46,17.20
2012,07,07,08,47,17.30
2012,07,07,08,48,17.40
2012,07,07,08,49,17.50
2012,07,07,08,50,17.60
2012,07,07,08,51,17.60
2012,07,07,08,52,17.70
2012,07,07,08,53,17.70
2012,07,07,08,54,17.80
2012,07,07,08,55,17.90
2012,07,07,08,56,18.00
2012,07,07,08,57,18.00
2012,07,07,08,58,18.10
2012,07,07,08,59,18.20
2012,07,07,09,00,18.30
2012,07,07,09,01,18.40
2012,07,07,09,02,18.50
2012,07,07,09,03,18.60
2012,07,07,09,04,18.70
2012,07,07,09,05,18.70
2012,07,07,09,06,18.70
2012,07,07,09,07,18.60
2012,07,07,09,08,18.50
2012,07,07,09,09,18.50
2012,07,07,09,10,18.60
2012,07,07,09,11,18.60
2012,07,07,09,12,18.70
2012,07,07,09,13,18.70
2012,07,07,09,14,18.80
2012,07,07,09,15,18.80
2012,07,07,09,16,18.80
2012,07,07,09,17,18.80
2012,07,07,09,18,18.80
2012,07,07,09,19,18.90
2012,07,07,09,20,18.90
2012,07,07,09,21,18.90
2012,07,07,09,22,18.90
2012,07,07,09,23,18.90
2012,07,07,09,24,18.90
2012,07,07,09,25,19.00
2012,07,07,09,26,19.00
2012,07,07,09,27,19.10
2012,07,07,09,28,19.10
2012,07,07,09,29,19.10
2012,07,07,09,30,19.20
2012,07,07,09,31,19.20
2012,07,07,09,32,19.10
2012,07,07,09,33,19.10
2012,07,07,09,34,19.00
2012,07,07,09,35,18.90
2012,07,07,09,36,18.90
2012,07,07,09,37,18.80
2012,07,07,09,38,18.80
2012,07,07,09,39,18.80
2012,07,07,09,40,18.80
2012,07,07,09,41,18.70
2012,07,07,09,42,18.70
2012,07,07,09,43,18.80
2012,07,07,09,44,18.80
2012,07,07,09,45,18.80
2012,07,07,09,46,18.90
2012,07,07,09,47,18.90
2012,07,07,09,48,19.00
2012,07,07,09,49,19.10
2012,07,07,09,50,19.10
2012,07,07,09,51,19.10
2012,07,07,09,52,19.10
2012,07,07,09,53,19.10
2012,07,07,09,54,19.20
2012,07,07,09,55,19.20
2012,07,07,09,56,19.30
2012,07,07,09,57,19.40
2012,07,07,09,58,19.50
2012,07,07,09,59,19.60
2012,07,07,10,00,19.60
2012,07,07,10,01,19.60
2012,07,07,10,02,19.60
2012,07,07,10,03,19.70
2012,07,07,10,04,19.60
2012,07,07,10,05,19.60
2012,07,07,10,06,19.50
2012,07,07,10,07,19.40
2012,07,07,10,08,19.30
2012,07,07,10,09,19.20
2012,07,07,10,10,19.10
2012,07,07,10,11,19.10
2012,07,07,10,12,19.10
2012,07,07,10,13,19.20
2012,07,07,10,14,19.10
2012,07,07,10,15,19.10
2012,07,07,10,16,19.20
2012,07,07,10,17,19.20
2012,07,07,10,18,19.20
2012,07,07,10,19,19.30
2012,07,07,10,20,19.30
2012,07,07,10,21,19.30
2012,07,07,10,22,19.30
2012,07,07,10,23,19.30
2012,07,07,10,24,19.30
2012,07,07,10,25,19.30
2012,07,07,10,26,19.40
2012,07,07,10,27,19.40
2012,07,07,10,28,19.40
2012,07,07,10,29,19.50
2012,07,07,10,30,19.50
2012,07,07,10,31,19.60
2012,07,07,10,32,19.60
2012,07,07,10,33,19.70
2012,07,07,10,34,19.70
2012,07,07,10,35,19.70
2012,07,07,10,36,19.70
2012,07,07,10,37,19.80
2012,07,07,10,38,19.90
2012,07,07,10,39,20.00
2012,07,07,10,40,20.10
2012,07,07,10,41,20.20
2012,07,07,10,42,20.20
2012,07,07,10,43,20.30
2012,07,07,10,44,20.20
2012,07,07,10,45,20.20
2012,07,07,10,46,20.20
2012,07,07,10,47,20.20
2012,07,07,10,48,20.10
2012,07,07,10,49,20.10
2012,07,07,10,50,20.10
2012,07,07,10,51,20.00
2012,07,07,10,52,20.00
2012,07,07,10,53,20.10
2012,07,07,10,54,20.10
2012,07,07,10,55,20.10
2012,07,07,10,56,20.10
2012,07,07,10,57,20.10
2012,07,07,10,58,20.10
2012,07,07,10,59,20.10
2012,07,07,11,00,20.10
2012,07,07,11,01,20.10
2012,07,07,11,02,20.10
2012,07,07,11,03,20.10
2012,07,07,11,04,20.10
2012,07,07,11,05,20.10
2012,07,07,11,06,20.10
2012,07,07,11,07,20.10
2012,07,07,11,08,20.10
2012,07,07,11,09,20.10
2012,07,07,11,10,20.10
2012,07,07,11,11,20.10
2012,07,07,11,12,20.10
2012,07,07,11,13,20.10
2012,07,07,11,14,20.00
2012,07,07,11,15,20.00
2012,07,07,11,16,20.00
2012,07,07,11,17,20.00
2012,07,07,11,18,20.00
2012,07,07,11,19,20.10
2012,07,07,11,20,20.20
2012,07,07,11,21,20.20
2012,07,07,11,22,20.10
2012,07,07,11,23,20.20
2012,07,07,11,24,20.20
2012,07,07,11,25,20.10
2012,07,07,11,26,20.10
2012,07,07,11,27,20.10
2012,07,07,11,28,20.20
2012,07,07,11,29,20.20
2012,07,07,11,30,20.20
2012,07,07,11,31,20.10
2012,07,07,11,32,20.10
2012,07,07,11,33,20.10
2012,07,07,11,34,20.10
2012,07,07,11,35,20.10
2012,07,07,11,36,20.20
2012,07,07,11,37,20.10
2012,07,07,11,38,20.10
2012,07,07,11,39,20.10
2012,07,07,11,40,20.10
2012,07,07,11,41,20.20
2012,07,07,11,42,20.20
2012,07,07,11,43,20.20
2012,07,07,11,44,20.30
2012,07,07,11,45,20.30
2012,07,07,11,46,20.30
2012,07,07,11,47,20.30
2012,07,07,11,48,20.30
2012,07,07,11,49,20.40
2012,07,07,11,50,20.50
2012,07,07,11,51,20.60
2012,07,07,11,52,20.60
2012,07,07,11,53,20.60
2012,07,07,11,54,20.70
2012,07,07,11,55,20.80
2012,07,07,11,56,20.80
2012,07,07,11,57,20.70
2012,07,07,11,58,20.60
2012,07,07,11,59,20.50
2012,07,07,12,00,20.40
2012,07,07,12,01,20.50
2012,07,07,12,02,20.40
2012,07,07,12,03,20.40
2012,07,07,12,04,20.50
2012,07,07,12,05,20.60
2012,07,07,12,06,20.70
2012,07,07,12,07,20.80
2012,07,07,12,08,20.80
2012,07,07,12,09,20.80
2012,07,07,12,10,20.80
2012,07,07,12,11,20.80
2012,07,07,12,12,20.80
2012,07,07,12,13,20.80
2012,07,07,12,14,20.80
2012,07,07,12,15,20.80
2012,07,07,12,16,20.80
2012,07,07,12,17,20.90
2012,07,07,12,18,20.90
2012,07,07,12,19,21.00
2012,07,07,12,20,21.10
2012,07,07,12,21,21.20
2012,07,07,12,22,21.30
2012,07,07,12,23,21.40
2012,07,07,12,24,21.50
2012,07,07,12,25,21.50
2012,07,07,12,26,21.60
2012,07,07,12,27,21.60
2012,07,07,12,28,21.60
2012,07,07,12,29,21.50
2012,07,07,12,30,21.50
2012,07,07,12,31,21.40
2012,07,07,12,32,21.40
2012,07,07,12,33,21.40
2012,07,07,12,34,21.50
2012,07,07,12,35,21.50
2012,07,07,12,36,21.60
2012,07,07,12,37,21.60
2012,07,07,12,38,21.50
2012,07,07,12,39,21.50
2012,07,07,12,40,21.50
2012,07,07,12,41,21.60
2012,07,07,12,42,21.70
2012,07,07,12,43,21.80
2012,07,07,12,44,21.90
2012,07,07,12,45,22.00
2012,07,07,12,46,22.00
2012,07,07,12,47,21.90
2012,07,07,12,48,21.80
2012,07,07,12,49,21.80
2012,07,07,12,50,21.80
2012,07,07,12,51,21.80
2012,07,07,12,52,21.80
2012,07,07,12,53,21.70
2012,07,07,12,54,21.60
2012,07,07,12,55,21.50
2012,07,07,12,56,21.50
2012,07,07,12,57,21.40
2012,07,07,12,58,21.30
2012,07,07,12,59,21.30
2012,07,07,13,00,21.30
2012,07,07,13,01,21.30
2012,07,07,13,02,21.30
2012,07,07,13,03,21.40
2012,07,07,13,04,21.40
2012,07,07,13,05,21.50
2012,07,07,13,06,21.50
2012,07,07,13,07,21.60
2012,07,07,13,08,21.60
2012,07,07,13,09,21.70
2012,07,07,13,10,21.60
2012,07,07,13,11,21.60
2012,07,07,13,12,21.60
2012,07,07,13,13,21.60
2012,07,07,13,14,21.70
2012,07,07,13,15,21.80
2012,07,07,13,16,21.90
2012,07,07,13,17,22.00
2012,07,07,13,18,22.10
2012,07,07,13,19,22.10
2012,07,07,13,20,22.20
2012,07,07,13,21,22.20
2012,07,07,13,22,22.20
2012,07,07,13,23,22.20
2012,07,07,13,24,22.10
2012,07,07,13,25,22.10
2012,07,07,13,26,22.00
2012,07,07,13,27,21.90
2012,07,07,13,28,21.80
2012,07,07,13,29,21.80
2012,07,07,13,30,21.80
2012,07,07,13,31,21.80
2012,07,07,13,32,21.80
2012,07,07,13,33,21.80
2012,07,07,13,34,21.80
2012,07,07,13,35,21.90
2012,07,07,13,36,22.00
2012,07,07,13,37,22.10
2012,07,07,13,38,22.10
2012,07,07,13,39,22.10
2012,07,07,13,40,22.20
2012,07,07,13,41,22.30
2012,07,07,13,42,22.40
2012,07,07,13,43,22.50
2012,07,07,13,44,22.60
2012,07,07,13,45,22.60
2012,07,07,13,46,22.70
2012,07,07,13,47,22.80
2012,07,07,13,48,22.90
2012,07,07,13,49,22.90
2012,07,07,13,50,22.90
2012,07,07,13,51,22.90
2012,07,07,13,52,22.90
2012,07,07,13,53,22.90
2012,07,07,13,54,23.00
2012,07,07,13,55,23.00
2012,07,07,13,56,23.10
2012,07,07,13,57,23.20
2012,07,07,13,58,23.30
2012,07,07,13,59,23.30
2012,07,07,14,00,23.40
2012,07,07,14,01,23.40
2012,07,07,14,02,23.40
2012,07,07,14,03,23.40
2012,07,07,14,04,23.40
2012,07,07,14,05,23.40
2012,07,07,14,06,23.40
2012,07,07,14,07,23.50
2012,07,07,14,08,23.60
2012,07,07,14,09,23.60
2012,07,07,14,10,23.60
2012,07,07,14,11,23.60
2012,07,07,14,12,23.60
2012,07,07,14,13,23.60
2012,07,07,14,14,23.60
2012,07,07,14,15,23.60
2012,07,07,14,16,23.60
2012,07,07,14,17,23.50
2012,07,07,14,18,23.50
2012,07,07,14,19,23.40
2012,07,07,14,20,23.30
2012,07,07,14,21,23.30
2012,07,07,14,22,23.40
2012,07,07,14,23,23.50
2012,07,07,14,24,23.70
2012,07,07,14,25,23.80
2012,07,07,14,26,23.90
2012,07,07,14,27,24.00
2012,07,07,14,28,24.10
2012,07,07,14,29,24.20
2012,07,07,14,30,24.30
2012,07,07,14,31,24.20
2012,07,07,14,32,24.20
2012,07,07,14,33,24.00
2012,07,07,14,34,23.80
2012,07,07,14,35,23.60
2012,07,07,14,36,23.30
2012,07,07,14,37,23.20
2012,07,07,14,38,23.00
2012,07,07,14,39,22.90
2012,07,07,14,40,22.90
2012,07,07,14,41,22.80
2012,07,07,14,42,22.80
2012,07,07,14,43,22.80
2012,07,07,14,44,22.80
2012,07,07,14,45,22.80
2012,07,07,14,46,22.70
2012,07,07,14,47,22.60
2012,07,07,14,48,22.60
2012,07,07,14,49,22.60
2012,07,07,14,50,22.50
2012,07,07,14,51,22.30
2012,07,07,14,52,22.40
2012,07,07,14,53,22.50
2012,07,07,14,54,22.70
2012,07,07,14,55,22.70
2012,07,07,14,56,22.50
2012,07,07,14,57,22.40
2012,07,07,14,58,22.30
2012,07,07,14,59,22.20
2012,07,07,15,00,22.10
2012,07,07,15,01,22.00
2012,07,07,15,02,22.00
2012,07,07,15,03,22.00
2012,07,07,15,04,21.90
2012,07,07,15,05,22.00
2012,07,07,15,06,22.00
2012,07,07,15,07,22.00
2012,07,07,15,08,22.00
2012,07,07,15,09,22.00
2012,07,07,15,10,21.90
2012,07,07,15,11,21.90
2012,07,07,15,12,21.90
2012,07,07,15,13,22.00
2012,07,07,15,14,22.20
2012,07,07,15,15,22.20
2012,07,07,15,16,22.20
2012,07,07,15,17,22.20
2012,07,07,15,18,22.20
2012,07,07,15,19,22.30
2012,07,07,15,20,22.50
2012,07,07,15,21,22.60
2012,07,07,15,22,22.60
2012,07,07,15,23,22.70
2012,07,07,15,24,22.70
2012,07,07,15,25,22.60
2012,07,07,15,26,22.60
2012,07,07,15,27,22.60
2012,07,07,15,28,22.60
2012,07,07,15,29,22.70
2012,07,07,15,30,22.80
2012,07,07,15,31,22.80
2012,07,07,15,32,22.90
2012,07,07,15,33,22.90
2012,07,07,15,34,23.00
2012,07,07,15,35,23.10
2012,07,07,15,36,23.10
2012,07,07,15,37,23.10
2012,07,07,15,38,23.10
2012,07,07,15,39,23.10
2012,07,07,15,40,23.20
2012,07,07,15,41,23.30
2012,07,07,15,42,23.30
2012,07,07,15,43,23.40
2012,07,07,15,44,23.40
2012,07,07,15,45,23.50
2012,07,07,15,46,23.50
2012,07,07,15,47,23.60
2012,07,07,15,48,23.60
2012,07,07,15,49,23.60
2012,07,07,15,50,23.70
2012,07,07,15,51,23.80
2012,07,07,15,52,23.80
2012,07,07,15,53,23.80
2012,07,07,15,54,23.80
2012,07,07,15,55,23.80
2012,07,07,15,56,23.80
2012,07,07,15,57,23.90
2012,07,07,15,58,24.00
2012,07,07,15,59,24.00
2012,07,07,16,00,24.00
2012,07,07,16,01,24.10
2012,07,07,16,02,24.10
2012,07,07,16,03,24.10
2012,07,07,16,04,24.20
2012,07,07,16,05,24.10
2012,07,07,16,06,24.10
2012,07,07,16,07,24.00
2012,07,07,16,08,23.90
2012,07,07,16,09,23.90
2012,07,07,16,10,23.90
2012,07,07,16,11,23.90
2012,07,07,16,12,24.00
2012,07,07,16,13,23.90
2012,07,07,16,14,23.90
2012,07,07,16,15,23.80
2012,07,07,16,16,23.70
2012,07,07,16,17,23.70
2012,07,07,16,18,23.80
2012,07,07,16,19,23.80
2012,07,07,16,20,23.90
2012,07,07,16,21,24.10
2012,07,07,16,22,24.20
2012,07,07,16,23,24.10
2012,07,07,16,24,24.00
2012,07,07,16,25,23.90
2012,07,07,16,26,23.90
2012,07,07,16,27,23.80
2012,07,07,16,28,23.80
2012,07,07,16,29,23.90
2012,07,07,16,30,24.00
2012,07,07,16,31,24.00
2012,07,07,16,32,23.90
2012,07,07,16,33,23.90
2012,07,07,16,34,24.00
2012,07,07,16,35,24.00
2012,07,07,16,36,24.10
2012,07,07,16,37,24.00
2012,07,07,16,38,23.90
2012,07,07,16,39,23.80
2012,07,07,16,40,23.80
2012,07,07,16,41,23.80
2012,07,07,16,42,24.00
2012,07,07,16,43,24.00
2012,07,07,16,44,24.10
2012,07,07,16,45,24.10
2012,07,07,16,46,24.20
2012,07,07,16,47,24.30
2012,07,07,16,48,24.40
2012,07,07,16,49,24.60
2012,07,07,16,50,24.60
2012,07,07,16,51,24.60
2012,07,07,16,52,24.50
2012,07,07,16,53,24.50
2012,07,07,16,54,24.50
2012,07,07,16,55,24.40
2012,07,07,16,56,24.40
2012,07,07,16,57,24.40
2012,07,07,16,58,24.50
2012,07,07,16,59,24.40
2012,07,07,17,00,24.40
2012,07,07,17,01,24.50
2012,07,07,17,02,24.50
2012,07,07,17,03,24.50
2012,07,07,17,04,24.50
2012,07,07,17,05,24.50
2012,07,07,17,06,24.50
2012,07,07,17,07,24.30
2012,07,07,17,08,24.20
2012,07,07,17,09,24.10
2012,07,07,17,10,23.90
2012,07,07,17,11,23.80
2012,07,07,17,12,23.80
2012,07,07,17,13,23.80
2012,07,07,17,14,23.80
2012,07,07,17,15,23.90
2012,07,07,17,16,23.90
2012,07,07,17,17,23.90
2012,07,07,17,18,23.90
2012,07,07,17,19,23.80
2012,07,07,17,20,23.80
2012,07,07,17,21,23.70
2012,07,07,17,22,23.70
2012,07,07,17,23,23.70
2012,07,07,17,24,23.60